User: anonymous   Login
Location: Gipe Farm
(40.9466°N, 95.5370°W)
Time: 14:57:38
(UTC-05:00)
Language:

Cosmos 1842 - Orbit

View from above orbital plane
View from above orbital plane
View from above satellite
View from above satellite

Ground track
Ground track

The orbit data is extracted from the following two-line orbital elements,

1 17911U 87038A   17262.69388619 +.00001264 +00000-0 +73093-4 0  9992
2 17911 082.5207 101.1537 0009982 282.5136 077.4978 15.11389043655786
Epoch (UTC): 19 September 2017 16:39:11
Eccentricity: 0.0009982
inclination: 82.5207°
perigee height: 525 km
apogee height: 539 km
right ascension of ascending node: 101.1537°
argument of perigee: 282.5136°
revolutions per day: 15.11389043
mean anomaly at epoch: 77.4978°
orbit number at epoch: 65578

The dashed part of the orbit path shows where the satellite is in the earth's shadow,  

DLR